Regional Weather Roundup
Issued by NWS San Angelo, TX

Home | Current Version | Previous Version | Text Only | Print | Product List | Glossary On
Versions: 1 2 3 4 5 6 7 8 9 10 11 12 13 14 15 16 17 18 19 20 21 22 23 24 25 26 27 28 29 30 31 32 33 34 35 36 37 38 39 40 41 42 43 44 45 46 47 48 49 50
000
ASUS44 KSJT 231910
RWRSJT
WEST CENTRAL TEXAS REGIONAL WEATHER ROUNDUP
NATIONAL WEATHER SERVICE SAN ANGELO TX
200 PM CDT WED JUL 23 2014

NOTE: "FAIR" INDICATES FEW OR NO CLOUDS BELOW 12,000 FEET WITH NO
SIGNIFICANT WEATHER AND/OR OBSTRUCTIONS TO VISIBILITY.

TXZ049-054-064>066-071>073-076>078-098-099-113-114-127-128-139-140-
154-155-168>170-232000
...LOCATIONS ACROSS WEST CENTRAL TEXAS...

CITY           SKY/WX    TMP DP  RH WIND       PRES   REMARKS
SAN ANGELO     SUNNY     95  60  31 E12       30.13F
ABILENE        SUNNY     95  63  34 NE12G18   30.14F
DYESS AFB      MOSUNNY   95  63  33 VRB5      30.13F
JUNCTION       SUNNY     93  63  36 CALM      30.12F
SWEETWATER     SUNNY     96  53  23 NE7       30.19F
BROWNWOOD      MOSUNNY   93  66  40 NE6       30.11F
COLEMAN        CLEAR     94  63  35 NE12      30.13F
SONORA         MOSUNNY   91  61  35 VRB5      30.18S
OZONA          FAIR      95  57  28 E5        30.18F
BRADY          MOSUNNY   91  66  43 NE6       30.13F
$$

TEXAS PANHANDLE/OKLAHOMA PANHANDLE

CITY           SKY/WX    TMP DP  RH WIND       PRES   REMARKS
AMARILLO       SUNNY     90  59  35 VRB6      30.29S
BORGER         SUNNY     94  57  28 VRB3      30.24F
CANADIAN       SUNNY     96  63  33 E3        30.19S
DALHART        SUNNY     91  58  32 VRB6G18   30.31S
DUMAS          CLEAR     92  52  25 SW5       30.29S
GUYMON         NOT AVBL
HEREFORD       CLEAR     90  60  36 SW3       30.29F
PAMPA          CLEAR     93  56  28 SE6       30.27R
PERRYTON       SUNNY     95  55  25 S3        30.23F
$$

SOUTHERN PANHANDLE/SOUTH PLAINS/ROLLING PLAINS

CITY           SKY/WX    TMP DP  RH WIND       PRES   REMARKS
LUBBOCK        MOSUNNY   94  62  34 NE8       30.25S
SNYDER         SUNNY     95  58  29 E10G18    30.19S
CHILDRESS      SUNNY     95  65  37 S5        30.18S
SEMINOLE       CLEAR     94  52  24 SE5       30.24F
$$

PERMIAN BASIN

CITY           SKY/WX    TMP DP  RH WIND       PRES   REMARKS
MIDLAND        SUNNY     93  59  31 E6G20     30.19F
ODESSA         SUNNY     94  55  26 VRB7      30.21F
WINK           SUNNY     97  53  22 E15       30.17F
$$

FAR WEST/SOUTHWEST MOUNTAINS/TRANS PECOS

CITY           SKY/WX    TMP DP  RH WIND       PRES   REMARKS
ALPINE         PTCLDY    86  52  30 E9G18     30.34F
DRYDEN           N/A    100  61  27 E15G21    30.13F
EL PASO        MOSUNNY   91  52  26 SE17G23   30.23F
FORT STOCKTON  SUNNY     93  57  29 SE13G20   30.20F
GUADALUPE PASS SUNNY     85  51  31 E28       30.37F
MARFA          MOSUNNY   86  52  30 E14G21    30.34S
PECOS          CLEAR     96  55  24 E16G25    30.17F
$$

DALLAS/FORT WORTH METROPLEX

CITY           SKY/WX    TMP DP  RH WIND       PRES   REMARKS
DFW AIRPORT    MOSUNNY   93  67  42 E7        30.08F
FTW MEACHAM    SUNNY     94  66  39 E6        30.08F
DAL-EXECUTIVE  SUNNY     93  65  39 SE9       30.08F
GRAND PRAIRIE  SUNNY     91  63  38 CALM      30.09F
ADDISON        MOSUNNY   91  66  43 E8        30.09F
MESQUITE       PTCLDY    91  64  40 E6        30.08F
LANCASTER      CLEAR     92  65  40 NE7       30.09F
$$

NORTH CENTRAL TEXAS

CITY           SKY/WX    TMP DP  RH WIND       PRES   REMARKS
SHRMAN/DENISON PTCLDY    91  70  49 NE6       30.10S
GAINESVILLE    PTSUNNY   90  70  52 CALM      30.12S
BRIDGEPORT     PTCLDY    90  67  45 E5        30.12F
DENTON         MOSUNNY   90  70  51 SE8       30.09F
WAXAHACHIE     CLEAR     91  60  35 CALM      30.10S
GRANBURY       CLEAR     94  66  38 NE8       30.09F
$$

WESTERN NORTH TEXAS

CITY           SKY/WX    TMP DP  RH WIND       PRES   REMARKS
WICHITA FALLS  MOSUNNY   93  72  50 CALM      30.10F
VERNON         CLEAR     96  67  38 CALM      30.13F
BRECKENRIDGE   MOCLDY    97  63  32 E12       30.10F
COMANCHE       MOSUNNY   94  63  36 E9G20     30.12S
$$

CENTRAL AND SOUTH CENTRAL TEXAS

CITY           SKY/WX    TMP DP  RH WIND       PRES   REMARKS
AUSTIN/BERGSTM PTSUNNY   94  72  48 NE8       30.04S
WACO           MOSUNNY   92  65  40 CALM      30.07F
HILLSBORO      CLEAR     92  62  36 N5        30.09F
TEMPLE         SUNNY     93  66  40 NE12      30.08S
KILLEEN-GRAY   MOSUNNY   91  68  46 N3        30.08F
FORT HOOD      MOSUNNY   95  68  41 VRB6      30.07F
GEORGETOWN     MOSUNNY   93  68  43 NE3       30.06F
LAGO VISTA     FAIR      94  68  41 NE12      30.09F
SAN MARCOS     MOSUNNY   93  68  43 N7        30.05F
NEW BRAUNFELS  SUNNY     97  68  38 VRB3      30.03F
RANDOLPH AFB   PTSUNNY   93  70  46 VRB2      30.06F
SAN ANTONIO    PTSUNNY   93  70  46 CALM      30.06F
STINSON        MOSUNNY   93  69  45 CALM      30.04F
PLEASANTON     NOT AVBL
LA GRANGE      SUNNY     95  73  48 E5        30.01F
GIDDINGS       PTCLDY    91  71  52 CALM      30.08F
$$

EAST TEXAS

CITY           SKY/WX    TMP DP  RH WIND       PRES   REMARKS
PARIS          SUNNY     90  72  55 CALM      30.08F
CLARKSVILLE    PTCLDY    91  72  52 CALM      30.07F
TYLER          PTSUNNY   89  67  47 NW5       30.08F
LONGVIEW       SUNNY     89  70  53 CALM      30.06F
PALESTINE      NOT AVBL
NACOGDOCHES    PTSUNNY   88  70  55 SE5       30.07F
$$

TEXAS HILL COUNTRY AND EDWARDS PLATEAU

CITY           SKY/WX    TMP DP  RH WIND       PRES   REMARKS
LLANO          PTCLDY    93  70  46 CALM      30.12S
HORSESHOE BAY  FAIR      93  65  39 N6        30.08F
KERRVILLE      PTSUNNY   92  66  42 NW5       30.11S
FREDERICKSBRG  CLOUDY    91  60  35 E8        30.11S
ROCKSPRINGS    PTCLDY    93  63  36 S8        30.17S
HONDO          MOSUNNY   94  69  44 VRB3      30.08F
UVALDE         CLEAR     93  68  43 E5        30.08F
DEL RIO        MOSUNNY   96  66  37 S7        30.06F
$$

SOUTHEAST TEXAS

CITY           SKY/WX    TMP DP  RH WIND       PRES   REMARKS
COLLEGE STN    MOSUNNY   91  71  51 N5        30.05F
CALDWELL       PTCLDY    90  70  51 NE6       30.08S
CROCKETT         N/A     91  73  55 CALM      30.09F
BRENHAM        SUNNY     92  69  46 E3        30.04F
HUNTSVILLE     MOSUNNY   91  70  49 E5        30.06F
CONROE         MOSUNNY   90  70  51 SE7       30.05F
HOUSTON BUSH   MOSUNNY   91  72  53 NE13G20   30.03F
HOUSTON HOBBY  LGT RAIN  86  74  67 SE9       30.03F
PERLAND        LGT RAIN  88  75  65 NW8       30.04F
WHARTON        MOCLDY    82  72  71 SE16G22   30.04R
$$

THE UPPER TEXAS COAST

CITY           SKY/WX    TMP DP  RH WIND       PRES   REMARKS
ORANGE         PTCLDY    89  71  55 CALM      30.04F
PORT ARTHUR    MOSUNNY   93  71  48 E6        30.02F
GALVESTON      PTSUNNY   89  75  63 SE8       30.04F
ANGLETON       SUNNY     84  75  74 W8        30.04F
BAY CITY       MOCLDY    81  80  94 S6        30.03F
$$

TEXAS COASTAL BEND, RIO GRANDE PLAINS DEEP SOUTH TEXAS

CITY           SKY/WX    TMP DP  RH WIND       PRES   REMARKS
VICTORIA       SUNNY     96  72  45 W6        30.03F
BEEVILLE       MOCLDY    96  68  40 CALM      30.02F
ROCKPORT       PTSUNNY   90  74  59 SE8       30.03S
PORT ARANSAS   MOCLDY    87  75  68 SE9       30.04S
PORT LAVACA    MOCLDY    92  72  52 CALM      30.02F
CORPUS CHRISTI PTSUNNY   95  72  47 E10       30.01F
KINGSVILLE NAS PTSUNNY   95  72  47 CALM      30.00F
COTULLA        PTSUNNY   94  67  41 S5        30.03F
LAREDO         SUNNY     99  65  32 E8        30.03F
BROWNSVILLE    MOSUNNY   94  71  47 E9        30.01F
PORT ISABEL    SUNNY     93  72  50 E15       30.01F
HEBBRONVILLE   PTCLDY    95  64  35 S5        30.04F
MCALLEN        MOSUNNY   97  67  37 VRB5      30.00F
WESLACO        MOSUNNY   98  66  34 SE8       30.00F
FALFURRIAS     PTCLDY    89  60  37 S3        30.00F
EDINBURG       PTCLDY    98  64  33 NE3       30.00F
$$


USA.gov is the U.S. government's official web portal to all federal, state and local government web resources and services.